CAPE
1 4 12 0 0 2 6 9 1 0 1 0 0 0 0 0 0 0 1 0 0 3 48 146 264 305 329 231 156 94 46 22 33 78 69 37 38 27 12 0 0 1 2 1
9 12 22 17 6 0 0 0 1 1 0 0 0 0 0 0 0 0 0 3 0 0 0 5 90 239 294 345 276 191 140 104 76 60 50 55 68 57 26 17 11 18 0 0
7 1 3 2 3 11 2 4 11 7 3 0 0 0 3 0 0 0 0 0 0 0 0 0 18 30 206 303 273 270 218 177 137 107 81 88 87 80 65 59 59 40 21 6
0 1 0 14 1 0 7 2 1 1 1 1 0 0 0 0 0 0 0 0 0 0 0 0 0 0 0 94 286 296 270 244 207 171 149 130 109 104 109 103 92 80 74 57
0 1 0 0 0 14 29 0 0 0 1 0 0 0 11 0 0 0 0 0 0 0 2 5 16 25 0 0 39 219 348 322 252 253 217 173 138 140 128 112 100 94 96 73
28 3 0 0 0 0 0 0 0 0 0 0 0 0 0 0 0 0 0 0 0 0 0 0 0 2 37 10 0 0 111 318 330 302 237 219 241 222 202 128 109 126 8 0
5 12 4 24 26 16 10 0 3 2 2 0 0 0 0 0 0 0 0 0 0 0 0 0 0 0 15 11 0 3 20 60 177 237 300 289 270 256 263 113 0 0 0 5
8 10 4 44 2 33 16 9 9 0 0 0 0 0 0 0 0 1 2 0 0 0 0 0 0 0 1 0 4 1 0 1 0 5 1 57 50 0 0 0 1 3 4 7
0 2 40 68 13 0 0 1 0 0 0 0 0 0 0 0 0 0 0 0 0 0 0 0 1 4 7 4 2 3 6 4 1 1 2 2 1 3 4 7 6 7 5 8
26 66 9 22 7 0 1 0 0 0 0 0 0 0 0 0 0 0 0 0 0 0 0 0 2 3 5 3 2 0 1 5 5 5 8 6 5 5 6 4 5 8 9 11
10 0 34 32 3 1 1 0 0 0 0 0 0 0 0 0 0 0 0 0 0 0 0 2 3 5 5 5 2 0 1 2 6 6 7 7 6 4 3 1 3 4 6 7
25 2 5 6 1 0 0 0 0 0 0 0 0 0 0 0 0 0 0 0 0 0 0 0 1 5 5 3 5 1 1 2 2 4 3 4 5 6 3 4 4 2 2 0
0 0 0 0 0 0 0 0 0 0 0 0 0 0 0 0 0 0 0 0 0 1 1 1 2 5 6 5 2 4 3 3 4 2 1 1 1 2 3 1 2 1 1 1
0 0 0 0 2 0 0 0 0 0 0 0 0 0 0 1 0 1 2 2 0 0 0 0 1 5 3 2 3 3 3 3 3 2 3 2 1 0 0 1 0 0 0 0
0 0 2 0 0 0 0 0 0 2 1 1 0 1 0 3 3 2 2 1 1 1 0 0 0 2 0 0 1 2 1 1 1 1 1 1 1 1 0 0 0 0 0 0
0 0 0 0 0 0 0 0 0 0 0 0 0 0 0 0 1 2 1 1 2 1 1 1 0 0 0 1 0 0 0 0 0 0 0 0 0 0 0 0 0 0 0 0
0 0 0 0 1 0 0 0 0 0 0 1 1 1 1 0 0 1 1 1 0 0 0 0 1 0 0 0 0 0 0 0 0 0 0 0 0 0 0 0 0 0 0 0
1 0 2 0 0 0 0 1 1 1 1 1 1 1 1 0 2 1 1 1 1 0 0 0 0 0 0 1 1 0 0 0 0 0 0 0 0 0 0 0 0 0 0 0
1 1 0 0 3 1 1 1 1 0 0 0 1 1 1 1 1 1 0 0 0 0 0 0 0 0 0 0 0 0 0 0 0 0 0 0 0 0 0 0 0 0 0 0
2 1 1 1 1 1 1 1 0 0 0 0 0 0 1 0 0 0 0 0 0 0 0 0 0 0 0 0 0 0 0 0 0 0 0 0 0 0 0 0 0 0 0 0
2 1 1 1 1 1 0 0 0 0 0 0 0 0 0 0 0 0 0 0 0 0 0 0 0 0 0 0 0 0 0 0 0 0 0 0 0 0 0 0 0 0 0 0
1 1 1 1 1 1 1 0 0 0 0 0 0 0 0 0 0 0 0 0 0 0 0 0 0 0 0 0 0 0 0 0 0 0 0 0 0 0 0 0 0 0 0 0
1 1 0 1 1 1 1 1 0 0 0 0 0 0 0 0 0 0 0 0 0 0 0 0 0 0 0 0 0 0 0 0 0 0 0 0 0 0 0 0 0 0 0 0
1 1 1 0 0 1 0 1 0 0 0 0 0 0 0 0 0 0 0 0 0 0 0 0 0 0 0 0 0 0 0 0 0 0 0 0 0 0 0 0 0 0 0 0
1 1 1 0 0 0 0 0 0 0 0 0 0 0 0 0 0 0 0 0 0 0 0 0 0 0 0 0 0 0 0 0 0 0 0 0 0 0 0 0 0 0 0 0
2 0 0 0 0 0 0 0 0 0 0 0 0 0 0 0 0 0 0 0 0 0 0 0 0 0 0 0 0 0 0 0 0 0 0 0 0 0 0 0 0 0 0 0
0 0 0 0 0 0 0 0 0 0 1 1 0 0 0 0 0 0 0 0 0 0 0 0 0 0 0 0 0 0 0 0 0 0 0 0 0 0 0 0 0 0 0 0
CIN
-2 -7 -2 -0 -0 -6 -8 -5 -2 -0 -5 -0 -0 -0 -0 -0 -0 -0 -13 -0 -0 -21 -28 -43 -69 -109 -146 -191 -266 -338 -357 -370 -400 -360 -335 -330 -305 -282 -198 -0 -0 -0 -0 -0
-1 -3 -4 -2 -10 -0 -0 -0 -3 -3 -0 -0 -0 -0 -0 -0 -0 -0 -0 -13 -0 -0 -0 -17 -32 -58 -99 -147 -202 -278 -338 -369 -356 -354 -364 -347 -298 -282 -266 -270 -254 -238 -0 -0
-5 -4 -5 -9 -8 -4 -3 -3 -2 -6 -5 -0 -0 -0 -33 -0 -0 -0 -0 -0 -0 -0 -0 -6 -45 -36 -63 -90 -140 -196 -271 -314 -319 -318 -332 -346 -315 -304 -326 -320 -264 -276 -271 -151
-0 -1 -0 -6 -15 -0 -2 -7 -5 -3 -3 -4 -0 -0 -0 -0 -0 -0 -0 -0 -0 -0 -0 -0 -0 -0 -0 -68 -98 -151 -198 -246 -272 -275 -315 -327 -345 -355 -335 -321 -316 -296 -273 -252
-0 -0 -0 -0 -1 -22 -5 -3 -0 -4 -3 -0 -0 -0 -2 -0 -0 -0 -0 -0 -0 -0 -188 -172 -169 -209 -0 -0 -94 -82 -145 -191 -212 -223 -256 -288 -316 -348 -344 -304 -299 -297 -256 -234
-1 -4 -0 -0 -0 -0 -0 -0 -0 -0 -0 -0 -0 -0 -0 -0 -0 -0 -0 -0 -0 -0 -0 -0 -0 -260 -329 -256 -0 -0 -76 -107 -135 -154 -201 -222 -249 -262 -275 -258 -235 -208 -259 -0
-1 -1 -1 -2 -18 -37 -2 -0 -1 -1 -2 -0 -0 -0 -0 -0 -0 -0 -0 -0 -0 -0 -0 -0 -0 -0 -265 -287 -0 -227 -320 -239 -163 -142 -146 -151 -165 -160 -183 -209 -0 -0 -0 -0
-2 -1 -0 -5 -11 -16 -12 -1 -4 -0 -0 -0 -0 -0 -0 -0 -0 -1 -0 -0 -0 -0 -0 -0 -0 -0 -0 -0 -0 -0 -0 -183 -136 -179 -188 -101 -85 -0 -0 -0 -0 -0 -0 -0
-0 -1 -1 -2 -3 -3 -0 -0 -0 -0 -0 -0 -0 -0 -0 -0 -0 -0 -0 -0 -0 -0 -0 -0 -0 -0 -0 -0 -0 -0 -0 -0 -0 -0 -0 -0 -0 -0 -0 -0 -0 -0 -0 -0
-3 -5 -17 -1 -1 -0 -1 -0 -0 -0 -0 -0 -0 -0 -0 -0 -0 -0 -0 -0 -0 -0 -0 -0 -0 -0 -0 -0 -0 -0 -0 -0 -0 -0 -0 -0 -0 -0 -0 -0 -0 -0 -0 -0
-2 -6 -2 -3 -0 -0 -0 -0 -0 -0 -0 -0 -0 -0 -0 -0 -0 -0 -0 -0 -0 -0 -0 -0 -0 -0 -0 -0 -0 -0 -0 -0 -0 -0 -0 -0 -0 -0 -0 -0 -0 -0 -0 -0
-3 -31 -26 -0 -0 -0 -0 -0 -0 -0 -0 -0 -0 -0 -0 -0 -0 -0 -0 -0 -0 -0 -0 -0 -0 -0 -0 -0 -0 -0 -0 -0 -0 -0 -0 -0 -0 -0 -0 -0 -0 -0 -0 -0
-1 -0 -0 -0 -0 -0 -0 -0 -0 -0 -0 -0 -0 -0 -0 -0 -0 -0 -0 -0 -0 -0 -0 -0 -0 -0 -0 -0 -0 -0 -0 -0 -0 -0 -0 -0 -0 -0 -0 -0 -0 -0 -0 -0
-0 -0 -0 -0 -0 -0 -0 -0 -0 -0 -0 -0 -0 -0 -0 -0 -0 -0 -0 -0 -0 -0 -0 -0 -0 -0 -0 -0 -0 -0 -0 -0 -0 -0 -0 -0 -0 -0 -0 -0 -0 -0 -0 -0
-0 -0 -0 -0 -0 -0 -0 -0 -0 -0 -0 -0 -0 -0 -0 -0 -0 -0 -0 -0 -0 -0 -0 -0 -0 -0 -0 -0 -0 -0 -0 -0 -0 -0 -0 -0 -0 -0 -0 -0 -0 -0 -0 -0
-0 -0 -1 -0 -0 -0 -0 -0 -0 -0 -0 -0 -0 -0 -0 -0 -0 -0 -0 -0 -0 -0 -0 -0 -0 -0 -0 -0 -0 -0 -0 -0 -0 -0 -0 -0 -0 -0 -0 -0 -0 -0 -0 -0
-0 -0 -0 -0 -0 -0 -0 -0 -0 -0 -0 -0 -0 -0 -1 -0 -0 -0 -0 -0 -0 -0 -0 -0 -0 -0 -0 -0 -0 -0 -0 -0 -0 -0 -0 -0 -0 -0 -0 -0 -0 -0 -0 -0
-0 -0 -0 -0 -0 -0 -0 -0 -0 -0 -0 -0 -0 -0 -0 -0 -0 -0 -0 -0 -0 -0 -0 -0 -0 -0 -0 -0 -1 -1 -1 -1 -0 -1 -0 -0 -0 -1 -1 -1 -0 -0 -0 -0
-0 -0 -1 -1 -0 -0 -0 -0 -0 -0 -0 -0 -0 -0 -0 -0 -0 -0 -0 -0 -0 -0 -0 -0 -0 -0 -0 -0 -1 -1 -1 -1 -1 -1 -0 -0 -0 -1 -1 -1 -1 -0 -0 -0
-0 -0 -0 -0 -0 -0 -0 -0 -0 -0 -0 -0 -0 -0 -0 -0 -0 -0 -0 -0 -0 -0 -0 -0 -0 -0 -0 -0 -0 -0 -1 -0 -0 -0 -0 -1 -2 -1 -0 -0 -0 -0 -0 -0
-0 -0 -0 -0 -0 -0 -0 -0 -0 -0 -0 -0 -0 -0 -0 -0 -0 -0 -0 -0 -0 -0 -0 -0 -0 -0 -0 -0 -0 -0 -0 -0 -0 -0 -0 -0 -0 -0 -0 -0 -0 -0 -1 -0
-0 -0 -0 -0 -0 -0 -0 -0 -0 -0 -0 -0 -0 -0 -0 -0 -0 -0 -0 -0 -0 -0 -0 -0 -0 -0 -0 -0 -0 -0 -0 -0 -0 -0 -0 -0 -0 -0 -0 -0 -0 -0 -1 -1
-0 -0 -0 -0 -0 -0 -0 -0 -0 -0 -0 -0 -0 -0 -0 -0 -0 -0 -0 -0 -0 -0 -0 -0 -0 -0 -0 -0 -0 -0 -0 -0 -0 -0 -0 -0 -0 -0 -0 -0 -0 -0 -0 -0
-0 -0 -0 -0 -0 -0 -0 -0 -0 -0 -0 -0 -0 -0 -0 -0 -0 -0 -0 -0 -0 -0 -0 -0 -0 -0 -0 -1 -0 -0 -0 -0 -0 -0 -0 -0 -0 -0 -0 -0 -0 -0 -0 -0
-0 -0 -0 -0 -0 -0 -0 -0 -0 -0 -0 -0 -0 -0 -0 -0 -0 -0 -0 -0 -0 -0 -0 -0 -0 -0 -0 -0 -0 -1 -0 -0 -0 -0 -1 -0 -0 -0 -0 -0 -0 -0 -0 -0
-1 -0 -0 -0 -0 -0 -0 -0 -0 -0 -0 -0 -0 -1 -1 -1 -0 -0 -0 -0 -0 -0 -0 -0 -0 -0 -1 -0 -0 -0 -0 -0 -0 -0 -0 -0 -0 -0 -0 -0 -0 -0 -0 -0
-0 -0 -0 -0 -0 -0 -0 -0 -1 -1 -1 -1 -0 -0 -0 -1 -0 -0 -0 -0 -0 -0 -0 -0 -0 -0 -0 -0 -0 -0 -0 -0 -0 -0 -0 -0 -0 -0 -0 -0 -0 -0 -0 -0
Wind_Speed
35 28 24 23 25 25 28 29 31 30 33 32 27 24 24 24 27 27 26 22 23 19 17 15 9 7 9 11 11 12 12 14 16 15 15 15 15 15 16 17 18 18 19 22
31 29 26 30 30 32 32 28 28 28 27 20 22 21 24 28 29 28 29 26 25 27 26 20 17 16 13 11 13 13 14 15 13 14 15 16 16 16 16 17 18 19 20 21
21 22 26 33 31 25 27 27 25 26 19 16 17 20 24 25 25 27 28 30 30 29 28 26 27 22 18 16 14 14 15 15 15 14 15 15 15 15 17 17 17 19 19 20
22 22 25 20 18 25 23 18 14 9 12 15 19 20 16 19 22 24 26 29 28 29 29 28 28 28 29 23 18 17 17 18 18 17 17 16 16 18 17 16 17 18 19 19
24 24 23 22 15 14 11 11 13 14 16 18 21 21 13 21 24 26 27 28 28 31 32 31 31 30 30 30 29 24 22 22 20 21 21 20 20 20 19 18 18 18 17 19
24 25 25 20 10 12 18 16 15 17 19 21 23 22 24 31 29 30 30 29 30 30 30 31 32 33 34 33 31 31 27 25 29 28 26 25 25 23 22 20 20 19 18 20
32 29 26 16 17 17 23 19 17 18 20 24 25 29 33 34 33 32 30 30 30 30 29 31 33 34 33 32 31 33 33 32 29 29 29 28 26 25 23 21 22 23 23 24
33 33 35 22 20 25 18 16 19 21 23 26 28 30 33 33 33 32 31 30 30 30 30 31 31 31 30 32 36 35 32 29 28 26 27 26 24 25 25 24 23 24 24 24
23 27 15 15 11 15 18 20 23 25 26 28 29 32 33 33 31 30 30 30 31 29 29 30 31 31 31 33 32 30 29 28 27 26 25 25 25 25 26 25 24 23 21 22
17 12 11 10 13 16 18 20 22 24 26 27 29 30 30 29 29 29 30 31 31 29 30 31 32 31 31 32 29 27 27 27 26 25 24 25 25 26 24 25 23 21 21 21
17 10 11 12 16 18 20 22 23 24 25 26 27 28 30 29 30 30 30 31 31 30 30 30 30 30 31 30 28 25 24 25 25 23 21 20 21 23 23 24 23 22 22 21
18 17 18 17 20 22 23 25 25 26 26 26 27 29 29 29 30 30 30 31 30 30 30 30 29 29 30 30 28 25 25 24 23 21 20 19 18 17 18 17 17 17 16 15
17 22 23 22 22 25 26 27 27 27 28 29 30 30 30 29 30 30 30 31 31 31 30 29 29 29 29 30 28 26 23 21 22 19 18 20 20 20 19 18 16 15 14 13
20 23 19 22 26 26 26 27 26 26 27 28 29 29 29 29 29 30 30 30 30 30 30 29 27 28 27 28 26 24 22 21 19 19 17 16 16 16 16 16 16 16 14 13
25 25 24 24 25 27 27 27 27 27 27 28 28 28 28 28 28 28 28 27 27 28 28 26 27 24 25 24 24 23 22 21 21 19 19 16 15 14 14 14 14 14 14 15
28 26 24 26 26 27 27 27 27 27 27 27 26 26 25 24 23 23 24 25 25 26 25 25 24 25 24 23 22 22 22 21 19 20 19 18 17 17 17 17 18 18 19 19
27 28 29 29 29 28 27 26 25 25 24 24 23 22 21 21 21 21 22 22 22 23 24 25 24 25 24 24 22 22 21 21 21 20 20 19 18 18 19 19 20 21 21 21
24 24 26 27 28 27 27 26 25 23 22 20 19 19 19 19 20 21 21 21 21 22 25 25 25 25 25 24 23 22 21 21 21 20 20 20 20 20 19 19 20 20 21 23
23 23 24 24 23 23 22 22 21 20 18 17 16 17 17 18 19 20 21 21 22 23 25 25 25 25 25 25 23 23 22 22 22 22 22 22 22 22 22 21 21 22 23 24
21 21 21 21 21 20 19 19 18 17 17 16 15 16 17 18 19 19 20 21 22 23 24 25 24 25 25 25 24 23 23 23 23 23 23 23 23 23 23 23 23 24 24 25
19 19 18 18 19 19 18 18 17 17 16 16 16 16 17 18 20 20 21 22 24 24 24 25 26 25 25 25 24 24 24 24 24 24 24 24 24 24 24 24 24 25 25 26
18 18 17 17 17 18 18 18 17 16 16 16 16 17 17 18 19 20 22 22 23 24 24 25 25 26 25 25 25 25 25 24 24 24 24 24 24 24 24 25 25 25 26 26
17 17 17 17 17 17 17 18 18 17 17 18 18 19 19 20 22 22 23 24 24 24 24 25 26 26 26 25 25 25 25 25 25 25 25 25 25 25 25 26 26 26 26 27
17 17 16 16 16 17 17 17 17 18 18 19 20 22 21 21 22 22 22 23 23 24 24 25 26 26 26 25 25 25 26 26 26 25 25 25 25 25 25 26 26 26 27 27
17 17 17 17 18 18 18 17 17 18 19 20 21 21 22 22 21 23 23 23 24 24 24 25 26 26 26 26 26 26 26 26 26 26 26 26 26 26 26 26 27 27 27 26
18 19 19 20 20 20 20 20 21 21 21 21 22 22 21 21 21 22 22 23 24 24 24 24 25 26 26 26 26 26 26 26 26 26 26 26 26 27 27 28 27 27 27 27
20 20 20 21 21 22 22 22 22 22 22 22 22 22 22 22 22 22 23 23 24 24 24 24 25 25 26 26 26 26 26 26 25 26 26 27 27 27 27 27 28 28 27 27
Wind_Direction
246 257 257 250 249 249 253 259 259 263 265 273 283 286 287 288 289 289 291 301 301 300 296 292 283 242 224 216 214 217 219 217 214 218 217 216 224 226 223 227 232 231 236 235
246 255 258 252 254 258 260 263 266 268 273 285 296 296 293 287 286 288 285 296 301 296 293 289 287 282 273 254 242 234 227 227 234 228 226 228 230 228 234 233 234 237 236 241
257 260 257 254 253 261 262 261 266 266 285 295 298 305 299 299 299 298 294 293 293 295 296 293 290 290 283 278 272 252 238 233 235 233 230 229 234 237 235 238 248 244 248 250
262 264 253 264 276 250 260 269 277 284 293 302 306 309 321 325 320 311 304 302 297 295 294 294 298 296 289 288 277 267 259 257 254 243 236 239 232 229 232 239 241 247 254 259
260 261 273 272 274 264 238 263 291 288 294 301 307 305 314 322 317 314 312 310 302 299 295 293 293 298 297 293 287 281 274 270 263 257 254 250 244 240 244 246 247 248 259 267
257 259 259 271 275 279 282 275 298 296 300 303 305 300 301 308 311 308 312 313 313 310 303 299 297 295 293 292 292 291 289 280 276 272 269 264 261 260 260 258 261 266 272 285
252 257 266 273 277 287 269 278 300 301 304 305 303 303 303 306 304 307 310 312 317 319 317 311 306 300 294 296 295 295 292 290 286 279 274 272 271 269 264 265 271 276 279 286
253 257 257 287 283 270 287 303 304 310 313 309 312 312 311 311 310 311 311 318 319 319 319 318 314 311 306 302 299 295 297 296 293 290 286 282 275 277 278 276 274 276 280 288
261 262 283 298 300 300 299 299 304 309 312 313 313 314 314 313 314 317 319 320 320 319 322 323 321 318 312 310 309 305 304 300 295 293 293 289 282 280 283 282 278 278 276 287
271 284 289 303 318 317 314 313 315 316 315 316 315 318 319 320 321 321 322 323 325 324 320 318 322 320 316 313 314 315 310 306 301 299 296 294 293 290 283 281 282 281 284 289
276 295 306 313 315 316 317 318 317 318 319 319 319 318 320 322 322 322 322 323 324 323 323 322 322 322 321 317 318 318 316 313 310 306 307 306 307 300 297 294 289 288 290 291
278 296 295 305 307 308 310 311 313 312 313 316 319 319 320 322 323 324 324 325 324 324 322 322 325 325 323 323 317 318 318 317 317 311 312 311 309 315 330 323 318 314 307 304
291 294 295 300 305 308 306 306 308 310 311 311 314 316 318 321 323 323 325 325 325 324 324 322 323 325 326 325 325 323 323 318 320 315 319 314 308 305 308 333 340 333 333 332
304 302 304 307 299 307 311 310 313 315 318 318 318 321 322 322 324 324 327 329 330 327 324 324 324 326 330 329 330 329 326 327 315 329 328 325 322 323 322 323 324 328 345 354
302 307 304 306 309 312 315 315 315 317 320 323 326 325 325 324 326 328 329 333 335 337 332 335 330 330 333 337 340 338 331 327 331 334 326 330 331 335 335 336 340 342 342 344
300 303 309 308 312 315 318 319 318 319 322 324 327 331 333 333 336 338 340 339 337 337 333 335 341 340 342 344 345 347 351 346 341 345 346 341 336 343 329 330 331 327 326 327
304 302 306 307 311 315 320 323 323 323 324 326 328 332 337 341 344 345 345 345 342 341 336 338 337 342 344 345 346 347 349 352 354 351 352 356 351 350 349 344 337 335 338 341
317 318 318 318 315 316 321 323 324 324 325 329 334 336 337 335 338 342 342 341 339 335 334 330 336 345 346 348 349 349 349 351 353 353 352 349 348 349 350 348 345 341 338 339
327 326 327 327 328 328 330 330 330 334 337 335 338 341 342 338 338 342 343 341 334 334 330 336 341 347 346 346 351 351 350 349 350 350 350 349 347 345 344 342 340 338 337 336
333 335 337 340 344 345 346 347 349 347 345 345 347 344 345 338 342 344 344 346 342 338 337 337 341 345 346 346 345 346 345 346 346 344 342 341 341 339 339 338 335 334 334 334
339 347 346 355 359 357 0 2 358 357 354 352 350 349 350 349 347 348 344 338 339 339 341 344 344 344 344 344 346 346 345 343 341 340 339 338 337 337 337 337 336 336 335 335
353 354 358 360 3 1 -0 3 6 2 357 354 352 349 350 349 348 350 350 346 345 344 346 346 347 347 348 350 349 348 346 345 344 342 340 340 339 338 338 337 336 337 336 336
6 6 6 3 1 6 8 10 12 10 357 353 349 348 347 343 339 336 336 343 345 344 345 345 344 345 346 346 345 345 344 343 342 341 340 339 338 338 337 336 336 335 335 334
12 12 10 10 9 4 359 2 4 1 356 348 342 338 336 335 340 343 344 343 343 345 345 343 342 343 344 344 343 343 341 340 340 339 340 339 338 337 336 335 335 335 334 335
8 5 2 355 351 348 350 354 353 350 347 344 343 343 342 341 338 338 338 340 341 340 341 342 342 343 343 343 342 341 342 342 341 340 339 338 337 336 335 335 334 334 334 336
352 349 348 347 344 342 340 338 335 335 334 333 334 338 339 340 341 340 341 341 342 342 342 343 343 343 343 344 343 343 342 341 340 340 339 337 336 334 332 332 332 332 332 333
350 346 343 341 340 338 334 332 330 330 330 330 330 332 333 335 336 337 339 339 341 343 344 345 345 345 345 344 343 342 342 341 342 339 337 335 334 333 333 332 331 330 330 331